Regional Weather Roundup
Issued by NWS

Home | Current Version | Previous Version | Graphics & Text | Print | Product List | Glossary On
Versions: 1 2 3 4 5 6 7 8 9 10 11 12 13 14 15 16 17 18 19 20 21 22 23 24 25 26 27 28 29 30 31 32 33 34 35 36 37 38 39 40 41 42 43 44 45 46 47 48 49 50
000
ASUS45 KSLC 282310
RWRUT

UTAH REGIONAL WEATHER ROUNDUP
NATIONAL WEATHER SERVICE SALT LAKE CITY UT
400 PM MST WED JAN 28 2015

UTZ001>011-023>025-290000-

NORTHERN UTAH

CITY           SKY/WX    TMP DP  RH WIND       PRES   REMARKS
BRIGHAM CITY   CLOUDY    46  37  71 CALM      30.32R
HILL AFB       PTSUNNY   45  32  61 VRB2      30.30S
LOGAN          CLOUDY    44  39  82 N3        30.31R
OGDEN          CLOUDY    46  37  71 SE3       30.29F
PROVO AIRPORT  PTSUNNY   46  36  66 NW12      30.27F
SALT LAKE CITY CLOUDY    48  37  65 N12       30.30R
VERNAL         MOSUNNY   51  29  42 NE3       30.23S
WENDOVER       MOSUNNY   50  34  53 E6        30.29S
HEBER CITY     CLOUDY    41  32  70 N8        30.27S
WEST JORDAN    CLOUDY    46  37  71 NW10      30.30R

$$

UTZ012>022-026-027-290000-

SOUTHERN/CENTRAL UTAH

CITY           SKY/WX    TMP DP  RH WIND       PRES   REMARKS
BLANDING       MOSUNNY   51  33  50 S6        30.29S
BRYCE CANYON   MOSUNNY   45  24  43 W7        30.25S
CEDAR CITY     MOSUNNY   51  30  44 N7        30.22S
DELTA          CLOUDY    53  32  44 NW9       30.26F
HANKSVILLE     MOSUNNY   54  30  40 CALM      30.24S
MILFORD        SUNNY     55  31  39 N13       30.23F
MOAB/CYNLANDS  SUNNY     54  34  46 NW6       30.21S
PRICE          PTSUNNY   49  28  44 W5        30.24S
ST GEORGE      MOCLDY    57  39  51 CALM      30.20F
KANAB          PTSUNNY   52  36  54 S5        30.24F

$$

REGIONAL REPORTS     COLORADO/ARIZONA

CITY           SKY/WX    TMP DP  RH WIND       PRES   REMARKS
CRAIG, CO      CLOUDY    41  31  67 SE3       30.25R
GRAND JUNCTION MOSUNNY   52  31  44 N7        30.22S
RIFLE          PTSUNNY   53  26  35 SW6       30.22R
MONTROSE       SUNNY     54  26  34 N7        30.23R
CORTEZ         SUNNY     52  31  44 MISG      30.22S
PAGE, AZ       NOT AVBL
GRAND CANYON   MOSUNNY   52  22  30 N6        30.24S
KINGMAN        MOSUNNY   60  42  51 N7        30.17S
FLAGSTAFF      MOSUNNY   53  29  39 E9        30.23R

$$

REGIONAL REPORTS    NEVADA/IDAHO/WYOMING

CITY           SKY/WX    TMP DP  RH WIND       PRES   REMARKS
LAS VEGAS, NV  PTSUNNY   62  44  51 S5        30.15S
ELY            MOSUNNY   49  31  49 N14       30.26S
ELKO           PTSUNNY   49  34  56 SW5       30.29F
POCATELLO, ID  CLOUDY    38  38 100 W9        30.33R WCI  31
BURLEY         PTSUNNY   45  37  73 W10       30.31R
EVANSTON, WY   CLOUDY    37  31  78 SW9       30.28S WCI  30
ROCK SPRINGS   CLOUDY    40  30  67 W18       30.23R WCI  31
KEMMERER       MOSUNNY   36  32  87 W16       30.26F WCI  26

$$



USA.gov is the U.S. government's official web portal to all federal, state and local government web resources and services.